(556) Phyllis
ephemeris date magn radius delta ra dec elong phase
Today18 Sep 202514.42.407 AU3.396 AU12h04m-04°28'8.6°3.6°
Opposition27 May 202613.02.658 AU1.648 AU16h14m-26°44'174.5°2.1°
(556) Phyllis - 2025-09-18
astro.vanbuitenen.nl


 
-1 year
-1 month
-1 day
Now
+1 day
+1 month
+1 year

The interactive orbit chart above shows the body's path through the solar system and its position at the given date. Green and blue lines are shown perpendicular to the ecliptic plane: Green if the path is above the ecliptic plane, blue if it is below. (Left-click and drag to rotate the view; Right-click and drag to move the view; Use scroll wheel to zoom in our out.)

The orbital elements of Phyllis are:

            e (Eccentricity)                : 0.1039774
            a (Semimajor axis)              : 2.4639308
            i (Inclination)                 : 5.24945
            Ω (Longitude of ascending node) : 285.97209
            ω (Argument of perihelion)      : 177.14379
            M (Mean anomaly)                : 36.67064
            Epoch                           : 2025 May 05

            L (Longitude of perihelion)     : 283.12784
            B (Latitude of perihelion)      : 0.26121
            P (Orbital period in years)     : 3.87            
        

The light curve chart below shows the estimated development of the minor planet's magnitude.


The all-sky chart below shows the path of the minor planet over the same period as the light curve. The current position is marked yellow.





The following chart shows the path of the minor planet in the next few days. The field of view is optimized for (~10x50) binoculars and finderscopes. A more printer-friendly version of the same chart can be found below.




Ephemerides:
Date       Time       RA (2000)    DEC (2000)    delta   radius  elong  phase   PA    magn
2025-09-18 00:00 UT   12 04 30.5   -04 28 55     3.396    2.407    8.6    3.6   138   14.4 
2025-09-18 11:27 UT   12 05 20.6   -04 34 24     3.397    2.407    8.4    3.5   139   14.4 
2025-09-19 00:00 UT   12 06 15.4   -04 40 24     3.398    2.408    8.2    3.4   140   14.4 
2025-09-20 00:00 UT   12 08 00.3   -04 51 53     3.401    2.409    7.7    3.2   142   14.4 
2025-09-21 00:00 UT   12 09 45.2   -05 03 21     3.403    2.410    7.3    3.0   143   14.4 
2025-09-22 00:00 UT   12 11 30.1   -05 14 50     3.405    2.411    6.9    2.9   146   14.4 
2025-09-23 00:00 UT   12 13 15.0   -05 26 18     3.407    2.413    6.5    2.7   148   14.4 
2025-09-24 00:00 UT   12 14 60.0   -05 37 45     3.409    2.414    6.1    2.5   151   14.4 
2025-09-25 00:00 UT   12 16 44.9   -05 49 13     3.411    2.415    5.7    2.4   154   14.4 
2025-09-26 00:00 UT   12 18 29.8   -06 00 39     3.413    2.416    5.3    2.2   157   14.4 
2025-09-27 00:00 UT   12 20 14.8   -06 12 05     3.414    2.417    4.9    2.1   161   14.4 
2025-09-28 00:00 UT   12 21 59.7   -06 23 31     3.416    2.418    4.6    1.9   166   14.3 
2025-09-29 00:00 UT   12 23 44.7   -06 34 56     3.417    2.419    4.3    1.8   171   14.3 
2025-09-30 00:00 UT   12 25 29.7   -06 46 20     3.418    2.421    4.1    1.7   177   14.3 
2025-10-01 00:00 UT   12 27 14.6   -06 57 43     3.420    2.422    3.9    1.6   184   14.3 
2025-10-02 00:00 UT   12 28 59.6   -07 09 06     3.421    2.423    3.8    1.6   191   14.3 
2025-10-03 00:00 UT   12 30 44.6   -07 20 28     3.422    2.424    3.7    1.5   199   14.3 
2025-10-04 00:00 UT   12 32 29.5   -07 31 48     3.423    2.425    3.7    1.5   207   14.3 
2025-10-05 00:00 UT   12 34 14.5   -07 43 08     3.423    2.426    3.8    1.6   215   14.3 


    Terminology:
            
    delta:  distance between minor planet and earth in AU
    radius: distance between minor planet and sun in AU
    magn:   magnitude (brightness) estimate    
    ra:     right ascension in hours (24h = 360deg)
    dec:    declination in degrees
    elong:  elongation in degrees (angle sun-earth-minor planet)    
    phase:  phase angle in degrees (angle sun-minor planet-earth)        
    AU:     Astronomical Unit (mean distance between earth and sun: 149597870.7 km
    

Orbital elements provided by the MPC (Minor Planet Center).
Calculations by a modified version of AAPlus, a C# implementation of the AA+ project by PJ Naughter from the algorithms presented in the book "Astronomical Algorithms" by Jean Meeus.
NGC2000 dso catalog and star labels from VizieR as provided by the Strasbourg astronomical Data Center.
Tycho2 catalog from the ESO archive.